Home   Weather   Portland   Past weeks

Flag for USA Past Weather in Portland, Maine, USA — Yesterday and Last 2 Weeks

46 °F

Mostly cloudy.

Feels Like: 38 °F
Forecast: 43 / 51 °F
Wind: 23 mph from West

Location: Portland - Portland International Jetport

Current Time: Oct 23, 2016 at 10:20:17 AM

Latest Report: Oct 23, 2016 at 9:51 AM

Visibility: 10 mi

Pressure: 29.47 "Hg

Humidity: 61%

Dew Point: 33 °F

Location of PortlandLocation

Past Weather in Portland — Graph


Portland Temperature Yesterday

Maximum temperature yesterday: 64 °F (at 3:51 PM)
Minimum temperature yesterday: 44 °F (at 11:51 PM)
Average temperature yesterday: 58 °F

High & Low Weather Summary for the Past Weeks

High77 °F (Oct 19, 1:51 PM)100% (Oct 17, 6:51 AM)30.50 "Hg (Oct 17, 6:51 AM)
Low31 °F (Oct 15, 5:51 AM)27% (Oct 14, 2:51 PM)29.07 "Hg (Oct 22, 4:51 PM)
Average53 °F77%30.03 "Hg
* Reported Oct 8 8:51 AM — Oct 23 8:51 AM, Portland, Weather by CustomWeather, © 2016

Note: Actual official high and low records may vary slightly from our data, if they occured in-between our weather recording intervals... More about our weather records


Portland Weather History for the Previous 24 Hours

Scroll right to see more
Time TempWeatherWind HumidityBarometerVisibility
8:51 AM
Sun, Oct 23
44 °FMostly cloudy.14 mph65%29.46 "Hg10 mi
7:51 AM43 °FOvercast.18 mph65%29.44 "Hg10 mi
6:51 AM42 °FOvercast.22 mph71%29.40 "Hg10 mi
5:51 AM42 °FPassing clouds.15 mph71%29.37 "Hg10 mi
4:51 AM42 °FPassing clouds.18 mph71%29.35 "Hg10 mi
3:51 AM43 °FMostly cloudy.24 mph65%29.31 "Hg10 mi
2:51 AM43 °FOvercast.18 mph65%29.28 "Hg10 mi
1:51 AM43 °FMostly cloudy.17 mph65%29.26 "Hg10 mi
12:51 AM44 °FOvercast.16 mph68%29.24 "Hg10 mi
11:51 PM
Sat, Oct 22
44 °FMostly cloudy.16 mph76%29.21 "Hg10 mi
10:51 PM45 °FMostly cloudy.15 mph82%29.20 "Hg9 mi
9:51 PM46 °FDrizzle. Fog.12 mph89%29.18 "Hg5 mi
8:51 PM49 °FMostly cloudy.14 mph86%29.16 "Hg10 mi
7:51 PM51 °FLow clouds.13 mph86%29.12 "Hg10 mi
6:51 PM53 °FDrizzle. Fog.12 mph89%29.10 "Hg3 mi
5:51 PM57 °FLight rain. Fog.7 mph96%29.07 "Hg1 mi
4:51 PM59 °FRain. Fog.6 mph96%29.07 "Hg1 mi
3:51 PM64 °FMostly cloudy.8 mph94%29.08 "Hg7 mi
2:51 PM63 °FLight rain. Fog.7 mph97%29.12 "Hg2 mi
1:58 PM63 °FLight rain. Fog.No wind97%29.13 "Hg2 mi
12:51 PM63 °FLight rain. Fog.6 mph97%29.15 "Hg1 mi
11:51 AM63 °FLight rain. Fog.5 mph97%29.19 "Hg1 mi
10:58 AM63 °FLight rain. Fog.No wind97%29.21 "Hg1 mi
Weather by CustomWeather, © 2016

See weather overviewHow to use our weather pages